DMSP 5D-2 F13 DEB, 40441

Orbit data source: Space-Track

DMSP 5D-2 F13 DEB, 40441 is space debris in SSO originally from a launch on Fri, 24 Mar 1995 UTC launched from the Air Force Western Test Range (AFWTR). Debris objects in space refer to the collection of defunct objects orbiting the Earth. Examples of debris include non-operational satellites, rocket bodies, and fragments generated from explosions, collisions, or faulty payload assembly.

Loading next visibility...
Identifier
40441, 1995-015AT
Orbit
SSO
Country
Flag of USUS
Related business
Manufacturer
Unknown
Mission
Spacecraft
Bus & Motor
Unknown
Mass
Unknown
Launch date (UTC)
1995-03-24 (31 years ago)
Launch vehicle
Unknown
Launch site
Air Force Western Test Range (AFWTR)
Object type
Payload
Rocket body
Debris
Shape & HBR
Unknown shape, 0.1 m
Radar Cross Section
Small (<0.1 m²)

Expand to show TLE details & history
Last TLE update: 8 hours ago

TLE from 8 hours ago
0 DMSP 5D-2 F13 DEB
1 40441U 95015AT  25349.84798445  .00001851  00000-0  82742-3 0  9996
2 40441  98.8275   9.1758 0021634  49.9529 310.3543 14.23776292557535
Epoch: 2025-12-15T20:21Z
TLE epoch observation values (Epoch: 2025-12-15T20:21:05.856Z)
Latitude
0.00001°
Longitude
-20.83927°
Altitude
805.47 km
Speed
7.456 km/s
True Right ascension
00h 36m 42s
True Declination
0° 00' 00"
Sunlit
Object was in daylight at epoch
Visualization orbit readout
Latitude
Unknown
Longitude
Unknown
Altitude
Unknown
Speed
Unknown
Apparent Right ascension
Unknown
Apparent Declination
Unknown
Sunlit
N/A
Visualization observer readout
Local Sidereal Time
03:10:36
Azimuth
Unknown
Elevation
Unknown
Doppler factor
Unknown
Orbital elements
Apogee altitude
825.319 km
Perigee altitude
794.219 km
Semi-major axis
7,187.906 km
Eccentricity
0.00216
Inclination
98.8275°
RAAN
9.1758°
Arg. of periapsis
49.9529°
True anomaly
310.16505°
Mean anomaly
310.3543°
Eccentric anomaly
310.25971°
Mean motion
3.56155 °/min
Orbital period
101.08 mins
BSTAR
0.00082742
Loading maneuver chart data...
Computing Atmospheric mass density...

Documentation

Showing up to 5 results
|